Hobart, OK

1:00 AM CDT on July 23, 2017 (GMT -0500)
Hobart Municipal

Weather History for KHBR - September, 2013

Change the Weather History Date:

Thursday, September 19, 2013

  Actual Average Record
Temperature  
Mean Temperature 75 °F -  
Max Temperature 84 °F 83 °F 97 °F (2000)
Min Temperature 68 °F 59 °F 46 °F (2003)
Cooling Degree Days 10    
Growing Degree Days 25 (Base 50)    
Moisture  
Dew Point 65 °F    
Average Humidity 74    
Maximum Humidity 87    
Minimum Humidity 58    
Precipitation  
Precipitation 0.37 in - - ()
Sea Level Pressure  
Sea Level Pressure 29.90 in    
Wind  
Wind Speed 11 mph (SSW)    
Max Wind Speed 29 mph    
Max Gust Speed 32 mph    
Visibility 10 miles    
Events Rain    
Averages and records for this station are not official NWS values.
T = Trace of Precipitation, MM = Missing Value Source: NWS Daily Summary

Daily Weather History Graph

Daily Weather History Graph

Search for Another Location

Airport or City:

Trip Planner

Search our weather history database for the weather conditions in past years. The results will help you decide how hot, cold, wet, or windy it might be!

Date:

Astronomy

Sep. 19, 2013 Rise Set
Actual Time 7:22 AM CDT 7:36 PM CDT
Civil Twilight 6:56 AM CDT 8:02 PM CDT
Nautical Twilight 6:27 AM CDT 8:31 PM CDT
Astronomical Twilight 5:57 AM CDT 9:01 PM CDT
Moon 7:39 PM CDT (9/19) 7:31 AM CDT (9/19)
Length of Visible Light 13h 05m
Length of Day
12h 14m
Full, 100% of the Moon is Illuminated
Sep 19
Full
Sep 26
Last Quarter
Oct 4
New
Oct 11
First Quarter
Oct 18
Full

Hourly Weather History & Observations

Time (CDT) Temp. Heat Index Dew Point Humidity Pressure Visibility Wind Dir Wind Speed Gust Speed Precip Events Conditions
12:53 AM 73.9 °F - 62.1 °F 66% 29.86 in 10.0 mi South 12.7 mph - 0.06 in   Clear
1:53 AM 73.0 °F - 62.1 °F 68% 29.86 in 10.0 mi South 8.1 mph - 0.04 in   Clear
2:53 AM 70.0 °F - 62.1 °F 76% 29.86 in 10.0 mi South 5.8 mph - 0.04 in   Clear
3:53 AM 70.0 °F - 62.1 °F 76% 29.86 in 10.0 mi SSW 9.2 mph - 0.03 in   Partly Cloudy
4:53 AM 69.1 °F - 63.0 °F 81% 29.86 in 10.0 mi South 9.2 mph - 0.03 in   Clear
5:53 AM 68.0 °F - 62.1 °F 81% 29.87 in 10.0 mi SSW 6.9 mph - 0.03 in   Clear
6:53 AM 69.1 °F - 62.1 °F 78% 29.88 in 10.0 mi South 10.4 mph - 0.02 in   Clear
7:53 AM 70.0 °F - 62.1 °F 76% 29.90 in 10.0 mi SSW 10.4 mph - 0.01 in   Clear
8:53 AM 73.9 °F - 64.0 °F 71% 29.91 in 10.0 mi South 13.8 mph - 0.02 in   Clear
9:53 AM 79.0 °F - 64.9 °F 62% 29.92 in 10.0 mi SSW 15.0 mph - 0.01 in   Partly Cloudy
11:53 AM 82.0 °F 84.5 °F 66.9 °F 60% 29.93 in 10.0 mi SSW 15.0 mph - 0.02 in   Overcast
12:53 PM 82.9 °F 85.8 °F 68.0 °F 60% 29.92 in 10.0 mi South 17.3 mph - 0.02 in   Overcast
1:53 PM 82.9 °F 85.4 °F 66.9 °F 58% 29.91 in 10.0 mi SSW 28.8 mph 32.2 mph 0.02 in   Mostly Cloudy
2:53 PM 80.1 °F 82.3 °F 66.9 °F 64% 29.91 in 10.0 mi SSW 23.0 mph 28.8 mph 0.02 in   Partly Cloudy
3:53 PM 80.1 °F 82.3 °F 66.9 °F 64% 29.89 in 10.0 mi SSW 20.7 mph 24.2 mph N/A   Clear
4:53 PM 73.9 °F - 66.9 °F 79% 29.88 in 10.0 mi SSW 11.5 mph - 0.00 in Rain Light Rain
5:53 PM 75.0 °F - 66.9 °F 76% 29.87 in 10.0 mi SSW 12.7 mph - 0.00 in   Clear
6:53 PM 75.0 °F - 66.0 °F 73% 29.88 in 10.0 mi WSW 9.2 mph - N/A   Clear
7:53 PM 73.9 °F - 66.9 °F 79% 29.90 in 10.0 mi WSW 6.9 mph - N/A   Clear
8:53 PM 72.0 °F - 68.0 °F 87% 29.91 in 10.0 mi Calm Calm - N/A   Clear
9:53 PM 72.0 °F - 68.0 °F 87% 29.94 in 10.0 mi NW 3.5 mph - N/A   Clear
10:53 PM 72.0 °F - 66.9 °F 84% 29.97 in 10.0 mi North 6.9 mph - N/A   Overcast
11:53 PM 70.0 °F - 66.0 °F 87% 30.01 in 10.0 mi ENE 4.6 mph - 0.00 in   Overcast